User: anonymous   Login
Location: Albany
(35.0000°S, 118.0000°E)
Time: 06:35:41
(UTC-04:00)
Language:

Cosmos 1933 - Orbit

View from above orbital plane
View from above orbital plane
View from above satellite
View from above satellite

Ground track
Ground track

The orbit data is extracted from the following two-line orbital elements,

1 18958U 88020A   16267.79519832 +.00000670 +00000-0 +47567-4 0  9991
2 18958 082.5325 000.8516 0013289 106.6217 253.6469 15.03020927530343
Epoch (UTC): 23 September 2016 19:05:05
Eccentricity: 0.0013289
inclination: 82.5325°
perigee height: 548 km
apogee height: 567 km
right ascension of ascending node: 0.8516°
argument of perigee: 106.6217°
revolutions per day: 15.03020927
mean anomaly at epoch: 253.6469°
orbit number at epoch: 53034

The dashed part of the orbit path shows where the satellite is in the earth's shadow,  

DLR